FDX9162 KMEM-PANC

Flight info

Callsign FDX9162
Flight time N/A
Altitude 30000
Route JTEEE5 ODATE KK51I HIBAV/N0492F320 KP75E KP87C KP12Y KU18W MUSRA GUDOG YEGGA YQU 57N125W/N0483F340 MITOM DEEJA NCA10 YAK J501 JOH WITTI5
Aircraft B77L/H-SDE1E2E3FGHIJ2J3J4J5M1RWXY/LB1D1

Departure

Time 2026-05-05 19:43
Airport Memphis International Airport (KMEM)

Arrival

Time N/A
Airport Ted Stevens Anchorage International Airport (PANC)
Time Latitude Longitude Altitude Speed Heading
2026-05-05 18:57 35.06271 -89.97354 331 ft 0 kts 359°
2026-05-05 19:34 35.06269 -89.97354 335 ft 2 kts 359°
2026-05-05 19:34 35.06244 -89.97353 332 ft 4 kts 359°
2026-05-05 19:35 35.06201 -89.97348 330 ft 4 kts 296°
2026-05-05 19:35 35.06197 -89.97320 330 ft 4 kts 269°
2026-05-05 19:35 35.06198 -89.97298 330 ft 0 kts 269°
2026-05-05 19:38 35.06198 -89.97305 330 ft 3 kts 270°
2026-05-05 19:38 35.06197 -89.97356 331 ft 7 kts 270°
2026-05-05 19:38 35.06197 -89.97412 331 ft 7 kts 269°
2026-05-05 19:38 35.06196 -89.97468 330 ft 7 kts 268°
2026-05-05 19:39 35.06181 -89.97519 331 ft 7 kts 229°
2026-05-05 19:39 35.06137 -89.97540 330 ft 7 kts 188°
2026-05-05 19:39 35.06088 -89.97543 332 ft 7 kts 180°
2026-05-05 19:39 35.06020 -89.97540 332 ft 13 kts 175°
2026-05-05 19:40 35.05930 -89.97518 333 ft 13 kts 164°
2026-05-05 19:40 35.05842 -89.97489 333 ft 13 kts 170°
2026-05-05 19:40 35.05751 -89.97486 333 ft 13 kts 181°
2026-05-05 19:40 35.05659 -89.97488 332 ft 13 kts 181°
2026-05-05 19:41 35.05567 -89.97489 331 ft 13 kts 180°
2026-05-05 19:41 35.05522 -89.97493 331 ft 1 kts 190°
2026-05-05 19:41 35.05513 -89.97496 331 ft 3 kts 198°
2026-05-05 19:41 35.05461 -89.97545 326 ft 11 kts 230°
2026-05-05 19:42 35.05404 -89.97607 325 ft 11 kts 203°
2026-05-05 19:42 35.05327 -89.97615 327 ft 11 kts 179°
2026-05-05 19:42 35.05140 -89.97611 322 ft 57 kts 179°
2026-05-05 19:42 35.04524 -89.97597 327 ft 118 kts 179°
2026-05-05 19:43 35.03521 -89.97572 324 ft 168 kts 179°
2026-05-05 19:43 35.02273 -89.97581 645 ft 177 kts 178°
2026-05-05 19:43 35.01042 -89.97569 1234 ft 177 kts 180°
2026-05-05 19:43 34.99825 -89.97544 1831 ft 172 kts 182°
2026-05-05 19:44 34.98696 -89.97971 2142 ft 177 kts 212°
2026-05-05 19:44 34.97677 -89.98824 2510 ft 180 kts 210°
2026-05-05 19:44 34.96570 -89.99627 2779 ft 194 kts 210°
2026-05-05 19:44 34.95360 -90.00505 3070 ft 210 kts 213°
2026-05-05 19:45 34.94359 -90.01900 3291 ft 231 kts 246°
2026-05-05 19:45 34.94130 -90.03884 3832 ft 242 kts 264°
2026-05-05 19:45 34.94128 -90.05948 4467 ft 245 kts 264°
2026-05-05 19:45 34.94115 -90.08063 4968 ft 255 kts 264°
2026-05-05 19:46 34.94125 -90.10195 5759 ft 249 kts 269°
2026-05-05 19:46 34.94594 -90.12300 6286 ft 260 kts 292°
2026-05-05 19:46 34.95486 -90.14162 7131 ft 253 kts 295°
2026-05-05 19:46 34.96376 -90.16032 7526 ft 262 kts 291°
2026-05-05 19:47 34.97216 -90.17975 8143 ft 262 kts 297°
2026-05-05 19:47 34.98621 -90.19514 8541 ft 288 kts 328°
2026-05-05 19:47 35.00625 -90.20063 9108 ft 303 kts 350°
2026-05-05 19:47 35.02760 -90.20144 9628 ft 309 kts 350°
2026-05-05 19:48 35.04185 -90.20210 10018 ft 310 kts 349°
2026-05-05 19:48 35.06356 -90.20322 10455 ft 320 kts 349°
2026-05-05 19:48 35.08662 -90.20428 10597 ft 342 kts 354°
2026-05-05 19:48 35.11118 -90.19967 10741 ft 371 kts
2026-05-05 19:49 35.13688 -90.19132 10907 ft 392 kts
2026-05-05 19:49 35.16331 -90.18249 11369 ft 402 kts
2026-05-05 19:49 35.19057 -90.17345 12056 ft 407 kts
2026-05-05 19:49 35.21803 -90.16452 12906 ft 408 kts
2026-05-05 19:50 35.24563 -90.15572 13773 ft 410 kts
2026-05-05 19:50 35.27333 -90.14703 14526 ft 412 kts
2026-05-05 19:50 35.30126 -90.13834 15192 ft 416 kts
2026-05-05 19:50 35.32950 -90.12960 15848 ft 420 kts
2026-05-05 19:51 35.35794 -90.12080 16513 ft 424 kts
2026-05-05 19:51 35.38674 -90.11188 17162 ft 428 kts
2026-05-05 19:51 35.41540 -90.10298 17800 ft 432 kts
2026-05-05 19:51 35.44470 -90.09388 18388 ft 435 kts
2026-05-05 19:52 35.47420 -90.08470 18945 ft 439 kts
2026-05-05 19:52 35.50390 -90.07546 19529 ft 442 kts
2026-05-05 19:52 35.53381 -90.06613 20108 ft 444 kts
2026-05-05 19:52 35.56390 -90.05674 20643 ft 448 kts
2026-05-05 19:53 35.59428 -90.04727 21179 ft 451 kts
2026-05-05 19:53 35.62495 -90.03797 21663 ft 453 kts
2026-05-05 19:53 35.65593 -90.03490 22109 ft 443 kts 349°
2026-05-05 19:53 35.68607 -90.03947 22644 ft 441 kts 345°
2026-05-05 19:54 35.71679 -90.04371 23142 ft 447 kts 348°
2026-05-05 19:54 35.74800 -90.04660 23610 ft 451 kts 349°
2026-05-05 19:54 35.77907 -90.05041 23967 ft 445 kts 340°
2026-05-05 19:54 35.80720 -90.06404 24271 ft 427 kts 322°
2026-05-05 19:55 35.83240 -90.08330 24623 ft 428 kts 322°
2026-05-05 19:55 35.85822 -90.10212 25074 ft 431 kts 323°
2026-05-05 19:55 35.88425 -90.12042 25607 ft 431 kts 323°
2026-05-05 19:55 35.91039 -90.13851 26142 ft 431 kts 323°
2026-05-05 19:56 35.93631 -90.15636 26618 ft 431 kts 323°
2026-05-05 19:56 35.96258 -90.17445 27084 ft 432 kts 323°
2026-05-05 19:56 35.98894 -90.19265 27536 ft 434 kts 323°
2026-05-05 19:56 36.01532 -90.21089 27984 ft 435 kts 323°
2026-05-05 19:57 36.04179 -90.22922 28426 ft 436 kts 323°
2026-05-05 19:57 36.06825 -90.24757 28842 ft 437 kts 323°
2026-05-05 19:57 36.09441 -90.26573 29242 ft 438 kts 323°
2026-05-05 19:57 36.12108 -90.28428 29641 ft 439 kts 323°
2026-05-05 19:58 36.14774 -90.30283 29986 ft 440 kts 322°
2026-05-05 19:58 36.17444 -90.32141 30329 ft 439 kts 322°
2026-05-05 19:58 36.20103 -90.33991 30774 ft 436 kts 322°
2026-05-05 19:58 36.22743 -90.35827 31275 ft 432 kts 322°
2026-05-05 19:59 36.25352 -90.37643 31763 ft 428 kts 322°
2026-05-05 19:59 36.30545 -90.41277 31834 ft 433 kts 321°
2026-05-05 20:00 36.35772 -90.44936 31834 ft 430 kts 321°
2026-05-05 20:00 36.40973 -90.48580 31828 ft 427 kts 321°
2026-05-05 20:01 36.46150 -90.52214 31836 ft 427 kts 321°
2026-05-05 20:01 36.51325 -90.55855 31859 ft 428 kts 321°
2026-05-05 20:02 36.56486 -90.59491 31843 ft 430 kts 321°
2026-05-05 20:02 36.61707 -90.63174 31832 ft 432 kts 321°
2026-05-05 20:03 36.66950 -90.66878 31835 ft 433 kts 321°
2026-05-05 20:03 36.72160 -90.70561 31837 ft 434 kts 321°
2026-05-05 20:04 36.77426 -90.74292 31846 ft 436 kts 321°
2026-05-05 20:04 36.82730 -90.78057 31850 ft 438 kts 321°
2026-05-05 20:05 36.88032 -90.81826 31843 ft 439 kts 321°
2026-05-05 20:05 36.93304 -90.85577 31842 ft 438 kts 321°
2026-05-05 20:06 36.98600 -90.89353 31839 ft 437 kts 321°
2026-05-05 20:06 37.03904 -90.93143 31850 ft 439 kts 321°
2026-05-05 20:07 37.09209 -90.96938 31853 ft 440 kts 321°
2026-05-05 20:07 37.14530 -91.00751 31850 ft 441 kts 321°
2026-05-05 20:08 37.19865 -91.04580 31858 ft 441 kts 321°
2026-05-05 20:08 37.25174 -91.08398 31867 ft 443 kts 322°
2026-05-05 20:09 37.30532 -91.12257 31859 ft 444 kts 322°
2026-05-05 20:09 37.35904 -91.16130 31865 ft 445 kts 321°
2026-05-05 20:10 37.41236 -91.19980 31850 ft 444 kts 321°
2026-05-05 20:10 37.46594 -91.23858 31872 ft 443 kts 321°
2026-05-05 20:11 37.51958 -91.27746 31889 ft 443 kts 321°
2026-05-05 20:11 37.57261 -91.31595 31870 ft 441 kts 321°
2026-05-05 20:12 37.62583 -91.35465 31889 ft 440 kts 321°
2026-05-05 20:12 37.67851 -91.39305 31880 ft 439 kts 321°
2026-05-05 20:13 37.73144 -91.43168 31900 ft 439 kts 320°
2026-05-05 20:13 37.78436 -91.47035 31891 ft 439 kts 321°
2026-05-05 20:14 37.83723 -91.50907 31902 ft 438 kts 320°
2026-05-05 20:14 37.88973 -91.54759 31900 ft 438 kts 320°
2026-05-05 20:15 37.94248 -91.58634 31901 ft 438 kts 320°
2026-05-05 20:15 37.99536 -91.62527 31922 ft 439 kts 320°
2026-05-05 20:16 38.04785 -91.66396 31922 ft 439 kts 320°
2026-05-05 20:16 38.10068 -91.70296 31927 ft 439 kts 320°
2026-05-05 20:17 38.15348 -91.74202 31927 ft 439 kts 320°
2026-05-05 20:17 38.20605 -91.78096 31942 ft 440 kts 320°
2026-05-05 20:18 38.25902 -91.82028 31923 ft 440 kts 320°
2026-05-05 20:18 38.31189 -91.85958 31926 ft 440 kts 320°
2026-05-05 20:19 38.36474 -91.89893 31928 ft 439 kts 320°
2026-05-05 20:19 38.41713 -91.93801 31934 ft 438 kts 320°
2026-05-05 20:20 38.46988 -91.97743 31936 ft 438 kts 320°
2026-05-05 20:20 38.52099 -92.01860 31943 ft 429 kts 315°
2026-05-05 20:21 38.56939 -92.06335 31943 ft 429 kts 315°
2026-05-05 20:21 38.61763 -92.10799 31943 ft 430 kts 315°
2026-05-05 20:22 38.66630 -92.15299 31956 ft 431 kts 315°
2026-05-05 20:22 38.71467 -92.19771 31952 ft 431 kts 315°
2026-05-05 20:23 38.76335 -92.24275 31955 ft 431 kts 315°
2026-05-05 20:23 38.81203 -92.28786 31951 ft 430 kts 315°
2026-05-05 20:24 38.86057 -92.33292 31953 ft 430 kts 314°
2026-05-05 20:24 38.90888 -92.37787 31961 ft 431 kts 314°
2026-05-05 20:25 38.95740 -92.42307 31963 ft 430 kts 314°
2026-05-05 20:25 39.00579 -92.46824 31969 ft 429 kts 314°
2026-05-05 20:26 39.05394 -92.51324 31966 ft 429 kts 314°
2026-05-05 20:26 39.10217 -92.55842 32007 ft 429 kts 314°
2026-05-05 20:27 39.15053 -92.60380 31979 ft 429 kts 314°
2026-05-05 20:27 39.19850 -92.64889 31978 ft 429 kts 314°
2026-05-05 20:28 39.24686 -92.69443 31975 ft 430 kts 314°
2026-05-05 20:28 39.29521 -92.74004 31988 ft 431 kts 314°
2026-05-05 20:29 39.34370 -92.78585 32002 ft 432 kts 314°
2026-05-05 20:29 39.39194 -92.83150 31994 ft 433 kts 314°
2026-05-05 20:30 39.44063 -92.87767 31986 ft 434 kts 314°
2026-05-05 20:30 39.48934 -92.92392 31990 ft 434 kts 314°
2026-05-05 20:31 39.53802 -92.97024 31995 ft 434 kts 314°
2026-05-05 20:31 39.58640 -93.01635 31990 ft 434 kts 314°
2026-05-05 20:32 39.63502 -93.06276 31967 ft 434 kts 313°
2026-05-05 20:32 39.68365 -93.10928 31980 ft 434 kts 313°
2026-05-05 20:33 39.73223 -93.15584 31983 ft 434 kts 313°
2026-05-05 20:33 39.78065 -93.20233 31994 ft 435 kts 313°
2026-05-05 20:34 39.82954 -93.24937 31975 ft 437 kts 313°
2026-05-05 20:34 39.87846 -93.29651 31972 ft 438 kts 313°
2026-05-05 20:35 39.92716 -93.34351 31975 ft 439 kts 313°
2026-05-05 20:35 39.97627 -93.39100 31966 ft 439 kts 313°
2026-05-05 20:36 40.02551 -93.43869 31972 ft 441 kts 313°
2026-05-05 20:36 40.07497 -93.48672 32081 ft 444 kts 313°
2026-05-05 20:36 40.09969 -93.51072 32574 ft 439 kts 312°
2026-05-05 20:37 40.12396 -93.53419 33329 ft 428 kts 312°
2026-05-05 20:37 40.13971 -93.54942 33813 ft 423 kts 311°
2026-05-05 20:37 40.17094 -93.57980 33937 ft 422 kts 311°
2026-05-05 20:38 40.21762 -93.62543 33966 ft 417 kts 311°
2026-05-05 20:38 40.26393 -93.67079 33969 ft 415 kts 311°
2026-05-05 20:39 40.30232 -93.70844 33962 ft 415 kts 311°
2026-05-05 20:39 40.34870 -93.75396 33963 ft 415 kts 311°
2026-05-05 20:40 40.39473 -93.79920 33958 ft 416 kts 311°
2026-05-05 20:40 40.44120 -93.84494 33966 ft 417 kts 310°
2026-05-05 20:41 40.48771 -93.89081 33971 ft 418 kts 310°
2026-05-05 20:41 40.53442 -93.93693 33963 ft 419 kts 310°
2026-05-05 20:42 40.58103 -93.98304 33965 ft 419 kts 310°
2026-05-05 20:42 40.62736 -94.02896 33962 ft 419 kts 310°
2026-05-05 20:43 40.67402 -94.07528 33958 ft 420 kts 310°
2026-05-05 20:43 40.72061 -94.12163 33959 ft 420 kts 310°
2026-05-05 20:44 40.76718 -94.16803 33961 ft 420 kts 310°
2026-05-05 20:44 40.81375 -94.21453 33942 ft 419 kts 310°
2026-05-05 20:45 40.88358 -94.28443 33967 ft 421 kts 310°
2026-05-05 20:45 40.93001 -94.33098 33959 ft 421 kts 310°
2026-05-05 20:46 40.97631 -94.37827 33955 ft 420 kts 309°
2026-05-05 20:46 41.02232 -94.42594 33952 ft 420 kts 309°
2026-05-05 20:47 41.06803 -94.47336 33959 ft 420 kts 309°
2026-05-05 20:47 41.11412 -94.52119 33954 ft 420 kts 309°
2026-05-05 20:48 41.16021 -94.56902 33952 ft 419 kts 309°
2026-05-05 20:48 41.20622 -94.61686 33954 ft 419 kts 309°
2026-05-05 20:49 41.25187 -94.66444 33952 ft 419 kts 309°
2026-05-05 20:49 41.29783 -94.71243 33957 ft 419 kts 308°
2026-05-05 20:50 41.34369 -94.76038 33959 ft 419 kts 308°
2026-05-05 20:50 41.38943 -94.80830 33952 ft 418 kts 308°
2026-05-05 20:51 41.43490 -94.85603 33953 ft 418 kts 308°
2026-05-05 20:51 41.48061 -94.90411 33981 ft 418 kts 308°
2026-05-05 20:52 41.52628 -94.95224 33966 ft 418 kts 308°
2026-05-05 20:52 41.57164 -95.00010 33970 ft 418 kts 308°
2026-05-05 20:53 41.61725 -95.04834 33966 ft 418 kts 308°
2026-05-05 20:53 41.66290 -95.09670 34006 ft 418 kts 308°
2026-05-05 20:54 41.70853 -95.14515 33981 ft 419 kts 308°
2026-05-05 20:54 41.75427 -95.19379 33978 ft 420 kts 308°
2026-05-05 20:55 41.79971 -95.24219 33976 ft 420 kts 308°
2026-05-05 20:55 41.84542 -95.29097 33982 ft 419 kts 308°
2026-05-05 20:56 41.89109 -95.33983 33990 ft 421 kts 308°
2026-05-05 20:56 41.93673 -95.38872 33988 ft 421 kts 308°
2026-05-05 20:57 41.98265 -95.43802 33979 ft 422 kts 308°
2026-05-05 20:57 42.02820 -95.48701 33980 ft 422 kts 308°
2026-05-05 20:58 42.07407 -95.53644 34041 ft 422 kts 308°
2026-05-05 20:58 42.12003 -95.58607 33997 ft 423 kts 308°
2026-05-05 20:59 42.16603 -95.63580 33987 ft 423 kts 308°
2026-05-05 20:59 42.21170 -95.68529 33990 ft 423 kts 308°
2026-05-05 21:00 42.25759 -95.73513 33978 ft 423 kts 308°
2026-05-05 21:00 42.30352 -95.78512 34002 ft 424 kts 308°
2026-05-05 21:01 42.34953 -95.83527 33979 ft 425 kts 308°
2026-05-05 21:01 42.39560 -95.88559 33962 ft 425 kts 308°
2026-05-05 21:02 42.44163 -95.93595 33994 ft 425 kts 308°
2026-05-05 21:02 42.48771 -95.98648 33989 ft 426 kts 308°
2026-05-05 21:03 42.53533 -96.03466 33975 ft 432 kts 311°
2026-05-05 21:03 42.58457 -96.08171 33978 ft 433 kts 312°
2026-05-05 21:04 42.63383 -96.12881 33971 ft 433 kts 311°
2026-05-05 21:04 42.68275 -96.17589 33974 ft 433 kts 311°
2026-05-05 21:05 42.73181 -96.22333 33975 ft 433 kts 311°
2026-05-05 21:05 42.78098 -96.27100 33973 ft 433 kts 311°
2026-05-05 21:06 42.83006 -96.31867 33973 ft 433 kts 311°
2026-05-05 21:06 42.87892 -96.36623 33981 ft 434 kts 312°
2026-05-05 21:07 42.92804 -96.41413 33990 ft 433 kts 312°
2026-05-05 21:07 42.97711 -96.46206 33988 ft 433 kts 312°
2026-05-05 21:08 43.02619 -96.51011 33990 ft 433 kts 312°
2026-05-05 21:08 43.07493 -96.55794 33997 ft 434 kts 312°
2026-05-05 21:09 43.12396 -96.60611 34008 ft 433 kts 312°
2026-05-05 21:09 43.17300 -96.65440 34008 ft 433 kts 312°
2026-05-05 21:10 43.22198 -96.70274 34020 ft 434 kts 312°
2026-05-05 21:10 43.27098 -96.75122 34006 ft 434 kts 312°
2026-05-05 21:11 43.31996 -96.79976 34002 ft 434 kts 312°
2026-05-05 21:11 43.36861 -96.84805 34008 ft 434 kts 312°
2026-05-05 21:12 43.41756 -96.89675 34004 ft 434 kts 312°
2026-05-05 21:12 43.46650 -96.94555 34011 ft 434 kts 312°
2026-05-05 21:13 43.51545 -96.99444 34017 ft 434 kts 312°
2026-05-05 21:13 43.56445 -97.04351 34006 ft 435 kts 312°
2026-05-05 21:14 43.61312 -97.09232 34073 ft 435 kts 313°
2026-05-05 21:14 43.66213 -97.14159 34034 ft 435 kts 313°